MOLNIYA 1-62 [?] (15214 NORAD) Tracking and Keplerian Element Data

This shows tracking and keplerian element data for the satellite.

Feedback or suggestion? Click here.




ElementValue
Catalog15214
NameMOLNIYA 1-62 [?]
Epoch Orbit29
Epoch Day237.3786853
Epoch Year2023
RAAN301.0502
Inclination61.5474
Eccentricity0.722726
Argument of Perigee50.953
Mean Anonmoly353.6263
Mean Motion2.38492565
Decay Rate0.00203091
L11 15214U 84089A 23237.37868530 .00203091 -46413-6 94625-2 0 9997
L22 15214 61.5474 301.0502 7227260 50.9530 353.6263 2.38492565 294



Live tracking and technical data element details for MOLNIYA 1-62 [?] (NORAD 15214). MOLNIYA 1-62 [?] can be tracked NOW for your location showing map with azimuth and elevation plus other details from your city location.







IsCatalogInMostPopularTable: catalog: 15214, numindb: 355
Update: records affected: 1



GetName: 15214 MOLNIYA 1-62 [?]

Hit Count: updated at: Fri, 16 Jan 2026 03:41:22 GMT